User: anonymous   Login
Location: Chanteloup
(48.8560°N, 2.7390°E)
Time: 02:45:50
(UTC+00:00)
Language:

Cosmos 1825 - Orbit

View from above orbital plane
View from above orbital plane
View from above satellite
View from above satellite

Ground track
Ground track

The orbit data is extracted from the following two-line orbital elements,

1 17566U 87024A   22018.11343618  .00002881  00000-0  12739-3 0  9990
2 17566  82.5033  65.7364 0005128 118.2296 241.9458 15.21300978908101
Epoch (UTC): 18 January 2022 02:43:20
Eccentricity: 0.0005128
inclination: 82.5033°
perigee height: 498 km
apogee height: 505 km
right ascension of ascending node: 65.7364°
argument of perigee: 118.2296°
revolutions per day: 15.21300978
mean anomaly at epoch: 241.9458°
orbit number at epoch: 90810

The dashed part of the orbit path shows where the satellite is in the earth's shadow,  

DLR